Regional Weather Roundup
Issued by NWS

Home | Current Version | Previous Version | Text Only | Print | Product List | Glossary Off
Versions: 1 2 3 4 5 6 7 8 9 10 11 12 13 14 15 16 17 18 19 20 21 22 23 24 25 26 27 28 29 30 31 32 33 34 35 36 37 38 39 40 41 42 43 44 45 46 47 48 49 50

000
ASUS45 KSLC 211910
RWRUT

UTAH REGIONAL WEATHER ROUNDUP
NATIONAL WEATHER SERVICE SALT LAKE CITY UT
100 PM MDT SAT APR 21 2018

UTZ001>011-023>025-212000-

NORTHERN UTAH

CITY           SKY/WX    TMP DP  RH WIND       PRES   REMARKS
BRIGHAM CITY   SUNNY     62  24  23 S5        30.20F
HILL AFB       SUNNY     60  33  36 W3        30.21S
LOGAN          SUNNY     68  31  25 NE5       30.18F
OGDEN          SUNNY     61  30  31 W9        30.20S
SALT LAKE CITY MOSUNNY   65  29  25 N7        30.19S
TOOELE VALLEY  SUNNY     63  32  31 N12       30.20S
WENDOVER       SUNNY     65  21  18 E9        30.19F
HEBER CITY       N/A     63  28  27 CALM      30.16F
WEST JORDAN    SUNNY     61  36  38 CALM      30.20F

$$

UTZ011>015-024>027-212000-

CENTRAL/NORTHEAST UTAH

CITY           SKY/WX    TMP DP  RH WIND       PRES   REMARKS
PROVO AIRPORT  MOSUNNY   59  35  40 W6        30.20F
MOAB/CANYONLAN MOSUNNY   62  36  37 VRB3      30.12F
DELTA          SUNNY     57  30  35 NW3       30.22F
PRICE          SUNNY     64  27  24 NW8G23    30.15F
RICHFIELD      SUNNY     61  30  31 N6        30.20F
ROOSEVELT      SUNNY     57  36  44 SE9       30.18F
VERNAL         CLOUDY    55  40  56 S8        30.17F

$$

UTZ013>016-019>022-027-212000-

SOUTHERN UTAH

CITY           SKY/WX    TMP DP  RH WIND       PRES   REMARKS
BRYCE CANYON   SUNNY     55  25  31 W5        30.26F
CEDAR CITY     SUNNY     61  31  32 N12       30.22F
MILFORD        SUNNY     61  31  32 N10       30.22F
ST GEORGE      CLEAR     69  35  28 VRB3      30.13F
HANKSVILLE     SUNNY     64  32  29 CALM      30.16F
KANAB          SUNNY     68  23  18 W1        30.19F
BLANDING         N/A     63  28  26 W16       30.20F

$$

REGIONAL REPORTS     COLORADO/ARIZONA

CITY           SKY/WX    TMP DP  RH WIND       PRES   REMARKS
CRAIG, CO      CLOUDY    45  35  68 CALM      30.20F
GRAND JUNCTION CLOUDY    55  36  48 VRB6      30.18F
RIFLE, CO      CLOUDY    47  40  76 VRB6      30.20F
MONTROSE, CO   PTSUNNY   49  36  61 CALM      30.22F
CORTEZ, CO     SUNNY     61  29  29 N16G28    30.13F
COLORADO CITY    N/A     68  30  24 NW12      30.20F
PAGE, AZ       SUNNY     65  34  31 E5        30.16F
GRAND CANYON   SUNNY     61  24  24 VRB5      30.22F
KINGMAN, AZ    SUNNY     78  23  13 NE8       30.13F
FLAGSTAFF, AZ  SUNNY     59  25  27 SW6       30.23F

$$

REGIONAL REPORTS    NEVADA/IDAHO/WYOMING

CITY           SKY/WX    TMP DP  RH WIND       PRES   REMARKS
LAS VEGAS, NV  SUNNY     77  27  15 SE6       30.10F
ELY, NY        SUNNY     62  12  14 VRB6      30.24F
ELKO, NV       SUNNY     64  27  24 MISG      30.22F
POCATELLO, ID  MOSUNNY   64  29  26 W18G25    30.16F
BURLEY, ID     SUNNY     66  29  24 W15G26    30.15F
FORT BRIDGER,    N/A     61  21  21 NW18G26   30.22S
EVANSTON, WY   SUNNY     59  19  21 W10G23    30.20F
ROCK SPRINGS,  SUNNY     57  27  31 W10G18    30.15F
KEMMERER, WY   SUNNY     57  19  23 NW13G26   30.19F

$$



USA.gov is the U.S. government's official web portal to all federal, state and local government web resources and services.